Location: Bishop's University Astronomical Observatory
(45.3661°N, 71.8475°W)
Time: 06:25:36
(UTC-04:00)

CZ-4C R/B - Visible Passes

Search period start: 05 September 2015 00:00
Search period end: 15 September 2015 00:00
Orbit: 763 x 1240 km, 63.4° (Epoch: 04 September)

Date Brightness Start Highest point End Pass type
(mag) Time Alt. Az. Time Alt. Az. Time Alt. Az.
05 Sep 3.7 00:23:21 10° NNW 00:29:42 41° NE 00:30:03 40° NE visible
05 Sep 3.9 02:11:47 10° NW 02:15:11 31° NW 02:15:11 31° NW visible
05 Sep 4.9 21:19:11 10° NW 21:22:48 15° N 21:26:39 10° NE visible
05 Sep 4.4 23:08:36 10° NNW 23:13:51 24° NNE 23:16:44 19° ENE visible
06 Sep 3.4 00:56:48 10° NW 01:01:52 50° N 01:01:52 50° N visible
06 Sep 4.7 02:45:52 10° NW 02:47:00 15° WNW 02:47:00 15° WNW visible
06 Sep 4.8 20:02:22 10° WNW 20:06:24 18° NNW 20:10:39 10° NNE visible
06 Sep 4.8 21:53:31 10° NNW 21:57:36 17° NNE 22:02:01 10° NE visible
06 Sep 3.8 23:42:03 10° NNW 23:48:13 36° NE 23:48:39 36° NE visible
07 Sep 4.0 01:30:24 10° NW 01:33:47 32° NW 01:33:47 32° NW visible
07 Sep 4.9 20:37:32 10° NW 20:41:10 16° N 20:45:00 10° NNE visible
07 Sep 4.5 22:27:17 10° NNW 22:32:16 22° NNE 22:35:31 17° ENE visible
08 Sep 3.5 00:15:30 10° NNW 00:20:40 49° N 00:20:40 49° N visible
08 Sep 4.7 02:04:20 10° NW 02:05:49 17° WNW 02:05:49 17° WNW visible
08 Sep 4.8 21:12:04 10° NNW 21:15:58 16° N 21:20:10 10° NE visible
08 Sep 3.9 23:00:46 10° NNW 23:06:43 32° NE 23:07:36 31° NE visible
09 Sep 3.9 00:49:03 10° NW 00:52:45 36° NW 00:52:45 36° NW visible
09 Sep 4.8 19:55:51 10° NW 19:59:31 16° N 20:03:24 10° NNE visible
09 Sep 4.5 21:45:57 10° NNW 21:50:41 20° NNE 21:54:36 14° ENE visible
09 Sep 3.5 23:34:12 10° NNW 23:39:46 48° NNE 23:39:46 48° NNE visible
10 Sep 4.5 01:22:52 10° NW 01:24:55 20° WNW 01:24:55 20° WNW visible
10 Sep 4.8 20:30:34 10° NNW 20:34:20 16° N 20:38:22 10° NE visible
10 Sep 4.0 22:19:29 10° NNW 22:25:11 29° NNE 22:26:48 27° NE visible
11 Sep 3.7 00:07:43 10° NW 00:11:58 42° NW 00:11:58 42° NW visible
11 Sep 4.5 21:04:35 10° NNW 21:09:05 19° NNE 21:13:53 10° ENE visible
11 Sep 3.4 22:52:55 10° NNW 22:59:03 45° NNE 22:59:03 45° NNE visible
12 Sep 4.3 00:41:26 10° NW 00:44:13 26° NW 00:44:13 26° NW visible
12 Sep 4.7 19:49:01 10° NNW 19:52:41 16° N 19:56:36 10° NE visible
12 Sep 4.1 21:38:10 10° NNW 21:43:39 26° NNE 21:46:10 22° ENE visible
12 Sep 3.4 23:26:23 10° NW 23:31:20 51° NNW 23:31:20 51° NNW visible
13 Sep 5.0 01:15:41 10° WNW 01:16:30 13° WNW 01:16:30 13° WNW visible
13 Sep 4.6 20:23:12 10° NNW 20:27:28 18° NNE 20:32:06 10° ENE visible
13 Sep 3.5 22:11:37 10° NNW 22:17:57 40° NE 22:18:30 40° NE visible
14 Sep 4.0 00:00:02 10° NW 00:03:40 33° NW 00:03:40 33° NW visible
14 Sep 4.2 20:56:52 10° NNW 21:02:05 24° NNE 21:05:42 17° ENE visible
14 Sep 3.1 22:45:04 10° NW 22:50:52 59° N 22:50:52 59° N visible
